| time (UTC) | temp C | wind direction | speed KPH | gust KPH | rain 1hr cm | rain 24hr cm | rain mn cm | humidity % | barometer mb |
| 20260506234403 | 12 | 260 | 3.2 | 9.7 | 0.00 | 1.42 | 0.66 | 56 | 1013.9 |
| 20260506233542 | 12 | 183 | 1.6 | 6.4 | 0.00 | 1.42 | 0.66 | 56 | 1013.7 |
| 20260506232722 | 12 | 140 | 1.6 | 8.0 | 0.00 | 1.42 | 0.66 | 56 | 1013.5 |
| 20260506231902 | 12 | 282 | 1.6 | 11.3 | 0.00 | 1.42 | 0.66 | 55 | 1013.9 |
| 20260506231041 | 12 | 253 | 3.2 | 14.5 | 0.00 | 1.45 | 0.66 | 54 | 1014.1 |
| 20260506230221 | 13 | 242 | 1.6 | 6.4 | 0.00 | 1.45 | 0.66 | 57 | 1014.1 |
| 20260506225401 | 13 | 237 | 1.6 | 6.4 | 0.00 | 1.45 | 0.66 | 56 | 1014.0 |
| 20260506224541 | 13 | 238 | 1.6 | 8.0 | 0.00 | 1.45 | 0.66 | 58 | 1014.0 |
| 20260506223721 | 12 | 233 | 3.2 | 6.4 | 0.00 | 1.45 | 0.66 | 56 | 1014.1 |
| 20260506222901 | 13 | 188 | 1.6 | 9.7 | 0.00 | 1.45 | 0.66 | 56 | 1014.3 |
| 20260506222040 | 13 | 248 | 3.2 | 8.0 | 0.00 | 1.47 | 0.66 | 55 | 1014.3 |
| 20260506221220 | 13 | 251 | 3.2 | 9.7 | 0.00 | 1.50 | 0.66 | 52 | 1014.2 |
| 20260506220400 | 13 | 258 | 3.2 | 19.3 | 0.00 | 1.52 | 0.66 | 51 | 1013.8 |
| 20260506215540 | 13 | 64 | 3.2 | 16.1 | 0.00 | 1.55 | 0.66 | 55 | 1013.7 |
| 20260506214720 | 13 | 258 | 3.2 | 9.7 | 0.00 | 1.57 | 0.66 | 52 | 1013.7 |
| 20260506213859 | 13 | 21 | 3.2 | 20.9 | 0.00 | 1.63 | 0.66 | 53 | 1013.4 |
| 20260506213040 | 13 | 43 | 3.2 | 20.9 | 0.00 | 1.65 | 0.66 | 54 | 1013.2 |
| 20260506212219 | 13 | 27 | 4.8 | 25.7 | 0.00 | 1.70 | 0.66 | 56 | 1013.4 |
| 20260506211359 | 13 | 322 | 3.2 | 12.9 | 0.00 | 1.78 | 0.66 | 54 | 1013.3 |
| 20260506210539 | 13 | 298 | 3.2 | 24.1 | 0.00 | 1.78 | 0.66 | 55 | 1013.3 |
| 20260506205718 | 13 | 27 | 3.2 | 24.1 | 0.00 | 1.78 | 0.66 | 54 | 1013.3 |
| 20260506204858 | 13 | 331 | 3.2 | 16.1 | 0.00 | 1.78 | 0.66 | 54 | 1013.2 |
| 20260506204038 | 13 | 252 | 4.8 | 12.9 | 0.00 | 1.78 | 0.66 | 55 | 1013.4 |
| 20260506203218 | 13 | 7 | 4.8 | 20.9 | 0.00 | 1.78 | 0.66 | 54 | 1013.5 |
| 20260506202357 | 14 | 9 | 4.8 | 24.1 | 0.00 | 1.78 | 0.66 | 52 | 1013.3 |
| 20260506201537 | 14 | 246 | 4.8 | 16.1 | 0.00 | 1.78 | 0.66 | 50 | 1013.2 |
| 20260506200717 | 13 | 255 | 3.2 | 14.5 | 0.00 | 1.78 | 0.66 | 53 | 1013.1 |
| 20260506195856 | 13 | 256 | 4.8 | 22.5 | 0.00 | 1.78 | 0.66 | 52 | 1012.9 |
| 20260506195036 | 13 | 258 | 4.8 | 27.4 | 0.00 | 1.78 | 0.66 | 52 | 1013.3 |
| 20260506194216 | 14 | 258 | 4.8 | 17.7 | 0.00 | 1.78 | 0.66 | 54 | 1013.0 |
| 20260506193356 | 14 | 340 | 4.8 | 24.1 | 0.00 | 1.78 | 0.66 | 53 | 1013.0 |
| 20260506192536 | 14 | 252 | 4.8 | 14.5 | 0.00 | 1.78 | 0.66 | 54 | 1012.9 |
| 20260506191715 | 14 | 254 | 4.8 | 16.1 | 0.00 | 1.78 | 0.66 | 53 | 1013.2 |
| 20260506190855 | 15 | 252 | 4.8 | 25.7 | 0.00 | 1.78 | 0.66 | 52 | 1012.8 |
| 20260506190035 | 15 | 280 | 4.8 | 20.9 | 0.00 | 1.78 | 0.66 | 52 | 1013.1 |
| 20260506185215 | 15 | 340 | 4.8 | 16.1 | 0.00 | 1.78 | 0.66 | 54 | 1012.9 |
| 20260506184355 | 15 | 279 | 4.8 | 19.3 | 0.00 | 1.78 | 0.66 | 52 | 1012.8 |
| 20260506183535 | 15 | 326 | 6.4 | 19.3 | 0.00 | 1.78 | 0.66 | 50 | 1012.8 |
| 20260506182715 | 15 | 278 | 4.8 | 22.5 | 0.00 | 1.78 | 0.66 | 50 | 1013.1 |
| 20260506181855 | 16 | 30 | 4.8 | 22.5 | 0.00 | 1.78 | 0.66 | 51 | 1013.1 |
| 20260506181034 | 15 | 3 | 4.8 | 24.1 | 0.00 | 1.78 | 0.66 | 56 | 1013.0 |
| 20260506180214 | 15 | 292 | 6.4 | 22.5 | 0.00 | 1.78 | 0.66 | 53 | 1013.0 |
| 20260506175354 | 15 | 246 | 4.8 | 17.7 | 0.00 | 1.78 | 0.66 | 54 | 1013.1 |
| 20260506174534 | 15 | 254 | 4.8 | 17.7 | 0.00 | 1.78 | 0.66 | 53 | 1013.1 |
| 20260506173714 | 15 | 320 | 4.8 | 16.1 | 0.00 | 1.78 | 0.66 | 52 | 1013.2 |
| 20260506172854 | 15 | 271 | 4.8 | 16.1 | 0.00 | 1.78 | 0.66 | 52 | 1013.2 |
| 20260506172033 | 16 | 44 | 6.4 | 20.9 | 0.00 | 1.78 | 0.66 | 52 | 1013.2 |
| 20260506171213 | 15 | 283 | 4.8 | 20.9 | 0.00 | 1.78 | 0.66 | 55 | 1012.9 |
| 20260506170353 | 14 | 255 | 4.8 | 16.1 | 0.00 | 1.78 | 0.66 | 57 | 1013.2 |
| 20260506165533 | 15 | 262 | 4.8 | 19.3 | 0.00 | 1.78 | 0.66 | 53 | 1013.3 |
| 20260506164713 | 14 | 270 | 4.8 | 17.7 | 0.00 | 1.78 | 0.66 | 57 | 1013.2 |
| 20260506163852 | 14 | 288 | 4.8 | 17.7 | 0.00 | 1.78 | 0.66 | 56 | 1013.1 |
| 20260506163032 | 15 | 20 | 4.8 | 25.7 | 0.00 | 1.78 | 0.66 | 58 | 1013.5 |
| 20260506162212 | 14 | 48 | 6.4 | 29.0 | 0.00 | 1.78 | 0.66 | 63 | 1013.4 |
| 20260506161352 | 13 | 309 | 3.2 | 29.0 | 0.00 | 1.78 | 0.66 | 58 | 1013.4 |
| 20260506160531 | 13 | 358 | 3.2 | 16.1 | 0.00 | 1.78 | 0.66 | 60 | 1012.9 |
| 20260506155711 | 13 | 359 | 3.2 | 16.1 | 0.00 | 1.78 | 0.66 | 59 | 1012.8 |
| 20260506154851 | 12 | 259 | 3.2 | 11.3 | 0.00 | 1.78 | 0.66 | 65 | 1013.1 |
| 20260506154031 | 12 | 347 | 3.2 | 14.5 | 0.00 | 1.78 | 0.66 | 66 | 1012.6 |
| 20260506153210 | 12 | 305 | 3.2 | 12.9 | 0.00 | 1.78 | 0.66 | 64 | 1012.8 |
| 20260506152350 | 11 | 260 | 3.2 | 11.3 | 0.00 | 1.78 | 0.66 | 67 | 1012.8 |
| 20260506151530 | 12 | 21 | 3.2 | 9.7 | 0.00 | 1.78 | 0.66 | 66 | 1012.4 |
| 20260506150710 | 12 | 41 | 3.2 | 14.5 | 0.00 | 1.78 | 0.66 | 69 | 1012.5 |
| 20260506145850 | 11 | 16 | 4.8 | 20.9 | 0.00 | 1.78 | 0.66 | 68 | 1012.2 |
| 20260506145029 | 11 | 14 | 3.2 | 16.1 | 0.00 | 1.78 | 0.66 | 69 | 1012.0 |
| 20260506144209 | 11 | 9 | 1.6 | 14.5 | 0.00 | 1.78 | 0.66 | 76 | 1012.3 |
| 20260506143349 | 11 | 9 | 1.6 | 11.3 | 0.00 | 1.78 | 0.66 | 78 | 1012.5 |
| 20260506142529 | 10 | 9 | 1.6 | 14.5 | 0.00 | 1.78 | 0.66 | 79 | 1012.1 |
| 20260506141709 | 10 | 350 | 3.2 | 19.3 | 0.00 | 1.78 | 0.66 | 79 | 1012.1 |
| 20260506140849 | 10 | 2 | 3.2 | 8.0 | 0.00 | 1.78 | 0.66 | 81 | 1011.8 |
| 20260506140029 | 10 | 359 | 1.6 | 9.7 | 0.00 | 1.78 | 0.66 | 85 | 1011.6 |
| 20260506135208 | 8 | 355 | 3.2 | 14.5 | 0.00 | 1.78 | 0.66 | 83 | 1011.5 |
| 20260506134348 | 8 | 281 | 3.2 | 11.3 | 0.00 | 1.78 | 0.66 | 87 | 1011.8 |
| 20260506133528 | 8 | 322 | 3.2 | 9.7 | 0.00 | 1.78 | 0.66 | 91 | 1011.5 |
| 20260506132708 | 8 | 1 | 3.2 | 11.3 | 0.00 | 1.78 | 0.66 | 95 | 1011.3 |
| 20260506131847 | 8 | 7 | 1.6 | 12.9 | 0.00 | 1.78 | 0.66 | 98 | 1011.3 |
| 20260506131027 | 7 | 12 | 3.2 | 12.9 | 0.00 | 1.78 | 0.66 | 99 | 1011.4 |
| 20260506130207 | 7 | 84 | 1.6 | 12.9 | 0.00 | 1.78 | 0.66 | 99 | 1011.5 |
| 20260506125347 | 7 | 216 | 0.0 | 4.8 | 0.00 | 1.78 | 0.66 | 99 | 1011.4 |
| 20260506124526 | 7 | 331 | 1.6 | 8.0 | 0.00 | 1.78 | 0.66 | 99 | 1011.4 |
| 20260506123706 | 7 | 243 | 1.6 | 6.4 | 0.00 | 1.78 | 0.66 | 99 | 1011.3 |
| 20260506122846 | 7 | 351 | 1.6 | 9.7 | 0.00 | 1.78 | 0.66 | 99 | 1010.6 |
| 20260506122026 | 7 | 224 | 0.0 | 6.4 | 0.00 | 1.78 | 0.66 | 99 | 1010.3 |
| 20260506121206 | 7 | 17 | 1.6 | 9.7 | 0.00 | 1.78 | 0.66 | 99 | 1010.3 |
| 20260506120345 | 7 | 159 | 0.0 | 4.8 | 0.00 | 1.78 | 0.66 | 99 | 1010.4 |
| 20260506115525 | 7 | 31 | 0.0 | 8.0 | 0.00 | 1.78 | 0.66 | 99 | 1010.4 |
| 20260506114705 | 7 | 61 | 1.6 | 8.0 | 0.00 | 1.78 | 0.66 | 99 | 1010.0 |
| 20260506113845 | 7 | 227 | 1.6 | 8.0 | 0.00 | 1.78 | 0.66 | 99 | 1010.6 |
| 20260506113025 | 7 | 200 | 1.6 | 8.0 | 0.00 | 1.78 | 0.66 | 99 | 1010.3 |
| 20260506112205 | 7 | 17 | 1.6 | 11.3 | 0.00 | 1.78 | 0.66 | 99 | 1009.8 |
| 20260506111344 | 7 | 24 | 1.6 | 9.7 | 0.00 | 1.78 | 0.66 | 99 | 1008.9 |
| 20260506110524 | 7 | 12 | 1.6 | 9.7 | 0.00 | 1.78 | 0.66 | 99 | 1009.2 |
| 20260506105704 | 7 | 330 | 1.6 | 9.7 | 0.00 | 1.78 | 0.66 | 99 | 1009.2 |
| 20260506104844 | 7 | 35 | 1.6 | 11.3 | 0.03 | 1.78 | 0.66 | 99 | 1009.1 |
| 20260506104024 | 7 | 42 | 1.6 | 11.3 | 0.00 | 1.78 | 0.66 | 99 | 1009.2 |
| 20260506103204 | 7 | 89 | 1.6 | 8.0 | 0.00 | 1.78 | 0.66 | 99 | 1009.3 |
| 20260506102343 | 7 | 50 | 1.6 | 9.7 | 0.03 | 1.78 | 0.66 | 99 | 1009.1 |
| 20260506101523 | 7 | 345 | 1.6 | 9.7 | 0.03 | 1.78 | 0.66 | 99 | 1009.2 |
| 20260506100703 | 7 | 27 | 1.6 | 6.4 | 0.03 | 1.78 | 0.66 | 99 | 1008.5 |
| 20260506095843 | 7 | 20 | 1.6 | 11.3 | 0.03 | 1.78 | 0.66 | 99 | 1008.0 |
| 20260506095023 | 7 | 15 | 3.2 | 11.3 | 0.03 | 1.78 | 0.66 | 99 | 1008.3 |
| 20260506094203 | 7 | 31 | 3.2 | 14.5 | 0.05 | 1.78 | 0.66 | 99 | 1008.2 |
| 20260506093342 | 7 | 43 | 1.6 | 9.7 | 0.05 | 1.78 | 0.66 | 99 | 1008.2 |
| 20260506092522 | 7 | 34 | 1.6 | 11.3 | 0.08 | 1.75 | 0.64 | 99 | 1007.9 |
| 20260506091702 | 7 | 16 | 1.6 | 12.9 | 0.10 | 1.75 | 0.64 | 99 | 1008.3 |
| 20260506090842 | 7 | 9 | 1.6 | 16.1 | 0.15 | 1.75 | 0.64 | 99 | 1008.4 |
| 20260506090022 | 7 | 25 | 3.2 | 16.1 | 0.15 | 1.75 | 0.64 | 99 | 1007.9 |
| 20260506085202 | 7 | 22 | 1.6 | 8.0 | 0.15 | 1.75 | 0.64 | 99 | 1008.2 |
| 20260506084342 | 7 | 26 | 1.6 | 8.0 | 0.13 | 1.73 | 0.61 | 99 | 1008.3 |
| 20260506083522 | 7 | 8 | 3.2 | 14.5 | 0.13 | 1.73 | 0.61 | 99 | 1008.7 |
| 20260506082701 | 7 | 354 | 3.2 | 14.5 | 0.10 | 1.70 | 0.58 | 99 | 1008.4 |
| 20260506081841 | 7 | 27 | 3.2 | 17.7 | 0.08 | 1.65 | 0.53 | 99 | 1008.0 |
| 20260506081021 | 7 | 6 | 3.2 | 17.7 | 0.05 | 1.63 | 0.51 | 99 | 1008.4 |
| 20260506080201 | 7 | 10 | 3.2 | 17.7 | 0.05 | 1.60 | 0.48 | 99 | 1008.0 |
| 20260506072840 | 7 | 8 | 3.2 | 11.3 | 0.18 | 1.60 | 0.48 | 99 | 1007.4 |
| 20260506072020 | 7 | 11 | 3.2 | 17.7 | 0.20 | 1.60 | 0.48 | 99 | 1007.8 |
| 20260506071200 | 8 | 3 | 3.2 | 11.3 | 0.23 | 1.57 | 0.46 | 99 | 1007.8 |
| 20260506070340 | 8 | 7 | 1.6 | 9.7 | 0.25 | 1.55 | 0.43 | 99 | 1007.5 |
| 20260506062159 | 8 | 11 | 3.2 | 19.3 | 0.18 | 1.37 | 0.25 | 99 | 1007.9 |
| 20260506061339 | 8 | 291 | 1.6 | 11.3 | 0.18 | 1.37 | 0.23 | 99 | 1007.9 |
| 20260506060519 | 8 | 329 | 1.6 | 9.7 | 0.18 | 1.32 | 0.18 | 99 | 1008.1 |
| 20260506050658 | 9 | 17 | 1.6 | 11.3 | 0.03 | 1.14 | 0.03 | 99 | 1007.8 |
| 20260506045017 | 9 | 23 | 1.6 | 9.7 | 0.00 | 1.12 | 0.00 | 99 | 1007.9 |
| 20260506044157 | 9 | 31 | 1.6 | 9.7 | 0.00 | 1.12 | 0.00 | 99 | 1008.2 |
| 20260506043337 | 9 | 35 | 3.2 | 11.3 | 0.03 | 1.12 | 0.00 | 99 | 1008.1 |
| 20260506042517 | 10 | 12 | 1.6 | 8.0 | 0.05 | 1.12 | 0.00 | 99 | 1007.9 |
| 20260506041657 | 10 | 23 | 3.2 | 11.3 | 0.08 | 1.12 | 0.00 | 99 | 1008.0 |
| 20260506040836 | 10 | 44 | 3.2 | 9.7 | 0.15 | 1.12 | 0.00 | 99 | 1008.1 |
| 20260506040016 | 10 | 52 | 1.6 | 6.4 | 0.20 | 1.12 | 0.00 | 99 | 1008.4 |
| 20260506035156 | 10 | 15 | 3.2 | 14.5 | 0.28 | 1.12 | 1.12 | 99 | 1008.3 |
| 20260506034335 | 10 | 14 | 3.2 | 14.5 | 0.28 | 1.12 | 1.12 | 99 | 1008.4 |
| 20260506033515 | 10 | 13 | 3.2 | 16.1 | 0.28 | 1.09 | 1.09 | 99 | 1008.5 |
| 20260506032655 | 10 | 13 | 3.2 | 16.1 | 0.28 | 1.09 | 1.09 | 99 | 1008.5 |
| 20260506031835 | 10 | 344 | 3.2 | 11.3 | 0.28 | 1.04 | 1.04 | 99 | 1008.8 |
| 20260506031015 | 11 | 292 | 3.2 | 12.9 | 0.25 | 0.99 | 0.99 | 99 | 1008.9 |
| 20260506030155 | 11 | 252 | 3.2 | 14.5 | 0.20 | 0.91 | 0.91 | 99 | 1009.2 |
| 20260506025335 | 12 | 289 | 3.2 | 16.1 | 0.18 | 0.86 | 0.86 | 99 | 1009.0 |
| 20260506024514 | 14 | 269 | 1.6 | 8.0 | 0.18 | 0.81 | 0.81 | 99 | 1009.0 |
| 20260506023654 | 14 | 233 | 1.6 | 9.7 | 0.23 | 0.81 | 0.81 | 99 | 1008.4 |
| 20260506022834 | 15 | 210 | 1.6 | 9.7 | 0.23 | 0.79 | 0.79 | 99 | 1008.3 |
| 20260506022014 | 15 | 174 | 0.0 | 3.2 | 0.25 | 0.76 | 0.76 | 99 | 1008.5 |
| 20260506021154 | 15 | 154 | 0.0 | 3.2 | 0.23 | 0.74 | 0.74 | 99 | 1008.7 |
| 20260506020334 | 15 | 170 | 0.0 | 1.6 | 0.23 | 0.71 | 0.71 | 99 | 1008.4 |
| 20260506015513 | 15 | 173 | 0.0 | 1.6 | 0.20 | 0.69 | 0.69 | 99 | 1008.7 |
| 20260506014653 | 15 | 261 | 0.0 | 1.6 | 0.15 | 0.64 | 0.64 | 99 | 1008.5 |
| 20260506013833 | 15 | 160 | 0.0 | 1.6 | 0.10 | 0.58 | 0.58 | 99 | 1008.7 |
| 20260506013013 | 15 | 118 | 0.0 | 1.6 | 0.10 | 0.56 | 0.56 | 99 | 1008.5 |
| 20260506012152 | 15 | 96 | 0.0 | 1.6 | 0.10 | 0.53 | 0.53 | 99 | 1008.3 |
| 20260506011332 | 15 | 94 | 0.0 | 1.6 | 0.08 | 0.51 | 0.51 | 99 | 1008.0 |
| 20260506010512 | 15 | 166 | 0.0 | 4.8 | 0.08 | 0.51 | 0.51 | 99 | 1007.7 |
| 20260506005652 | 15 | 176 | 1.6 | 9.7 | 0.08 | 0.48 | 0.48 | 99 | 1007.9 |
| 20260506004832 | 15 | 181 | 0.0 | 6.4 | 0.10 | 0.48 | 0.48 | 99 | 1007.9 |
| 20260506004012 | 15 | 142 | 1.6 | 6.4 | 0.10 | 0.48 | 0.48 | 99 | 1008.0 |
| 20260506003151 | 15 | 118 | 0.0 | 6.4 | 0.10 | 0.46 | 0.46 | 99 | 1008.2 |
| 20260506002331 | 15 | 175 | 0.0 | 4.8 | 0.08 | 0.43 | 0.43 | 99 | 1008.1 |
| 20260506001511 | 15 | 186 | 1.6 | 6.4 | 0.08 | 0.43 | 0.43 | 99 | 1008.0 |
| 20260506000651 | 15 | 178 | 1.6 | 6.4 | 0.10 | 0.43 | 0.43 | 99 | 1008.1 |
| 20260505235831 | 15 | 176 | 1.6 | 6.4 | 0.08 | 0.43 | 0.43 | 99 | 1008.3 |